Probability
5 4 3 3 3 2 1 0 0 0 0 0 0 1 1 1 0 0 1 2 2 1 0 0 0 0 1 1 1 0 0 0 0 0 0 0 0 0
4 3 3 3 3 2 1 1 1 1 1 0 0 0 0 0 0 0 0 1 1 0 0 0 0 0 0 0 0 0 0 0 0 0 0 0 0 0
3 3 3 3 3 2 2 2 2 2 1 0 0 0 0 0 0 0 0 0 0 0 0 0 0 0 0 0 0 0 0 0 0 0 0 0 0 0
3 3 3 3 2 1 1 1 1 1 1 0 0 0 0 0 0 0 0 0 0 0 0 0 0 0 0 0 0 0 0 0 0 0 0 0 0 0
3 3 3 2 1 0 0 0 0 0 0 0 0 0 0 0 0 0 0 0 0 0 0 0 0 0 0 0 0 0 0 0 0 0 0 0 0 0
3 3 3 2 0 0 0 0 0 0 0 0 0 0 0 0 0 0 0 0 0 0 0 0 0 0 0 0 0 0 0 0 0 0 0 0 0 0
2 2 2 1 0 0 0 0 0 0 0 0 0 0 0 0 0 0 0 0 0 0 0 0 0 0 0 0 0 0 0 0 0 0 0 0 0 0
2 1 0 0 0 0 0 0 0 0 0 0 0 0 0 0 0 0 0 0 0 0 0 0 0 0 0 0 0 0 0 0 0 0 0 0 0 0
1 1 1 0 0 0 0 0 0 0 0 0 0 0 0 0 0 0 0 0 0 0 0 0 0 0 0 0 0 0 0 0 0 0 0 0 0 0
1 1 2 1 0 0 0 0 0 0 0 0 0 0 0 0 0 0 0 0 0 0 0 0 0 0 0 0 0 0 0 0 0 0 0 0 0 0
0 1 2 1 0 0 0 0 0 0 0 0 0 0 0 0 0 0 0 0 0 0 0 0 0 0 0 0 0 0 0 0 0 0 0 0 0 0
1 1 1 1 0 0 0 0 0 0 0 0 0 0 0 0 0 0 0 0 0 0 0 0 0 0 0 0 0 0 0 0 0 0 0 0 0 0
2 2 2 1 0 0 0 0 0 0 0 0 0 0 0 0 0 0 0 0 0 0 0 0 0 0 0 0 0 0 0 0 0 0 0 0 0 0
2 2 2 1 0 0 0 0 0 0 0 0 0 0 0 0 0 0 0 0 0 0 0 0 0 0 0 0 0 0 0 0 0 0 0 0 0 0
1 1 1 0 0 0 0 0 0 0 0 0 0 0 0 0 0 0 0 0 0 0 0 0 0 0 0 0 0 0 0 0 0 0 0 0 0 0
0 0 0 0 0 0 0 0 0 0 0 0 0 0 0 0 0 0 0 0 0 0 0 0 0 0 0 0 0 0 0 0 0 0 0 0 0 0
0 0 0 0 0 0 0 0 0 0 0 0 0 0 0 0 0 0 0 0 0 0 0 0 0 0 0 0 0 0 0 0 0 0 0 0 0 0
0 0 0 0 0 0 0 0 0 0 0 0 0 0 0 0 0 0 0 0 0 0 0 0 0 0 0 0 0 0 0 0 0 0 0 0 0 0
0 0 0 0 0 0 0 0 0 0 0 0 0 0 0 0 0 0 0 0 0 0 0 0 0 0 0 0 0 0 0 0 0 0 0 0 0 0
0 0 0 0 0 0 0 0 0 0 0 0 0 0 0 0 0 0 0 0 0 0 0 0 0 0 0 0 0 0 0 0 0 0 0 0 0 0
0 0 0 0 0 0 0 0 0 0 0 0 0 0 0 0 0 0 0 0 0 0 0 0 0 0 0 0 0 0 0 0 0 0 0 0 0 0
0 0 0 0 0 0 0 0 0 0 0 0 0 0 0 0 0 0 0 0 0 0 0 0 0 0 0 0 0 0 0 0 0 0 0 0 0 0
0 0 0 0 0 0 0 0 0 0 0 0 0 0 0 0 0 0 0 0 0 0 0 0 0 0 0 0 0 0 0 0 0 0 0 0 0 0
Wind_Speed
1 1 0 0 1 1 2 3 4 2 1 1 0 1 1 2 3 2 3 7 7 6 6 6 6 6 6 6 6 6 6 7 7 8 8 7 7 7
1 2 1 1 0 0 1 1 2 3 2 1 1 1 2 3 4 3 3 7 7 6 6 6 6 6 6 6 6 7 7 7 8 8 8 9 9 9
3 2 2 1 1 1 1 2 2 3 3 1 1 1 2 3 2 2 3 3 3 6 6 6 6 7 7 7 7 7 7 7 7 8 8 8 8 9
3 4 3 3 3 2 2 2 2 2 4 3 1 1 1 2 3 3 3 3 3 5 6 6 7 7 6 6 6 7 7 7 7 7 7 7 7 8
4 4 4 4 4 3 3 3 2 2 3 4 2 1 1 2 3 2 3 2 2 4 5 5 5 5 5 5 5 5 5 5 6 6 6 6 6 6
5 5 5 4 4 4 4 3 3 3 3 4 3 2 1 1 2 2 1 1 1 2 2 3 3 3 3 3 4 4 4 4 4 4 4 5 5 5
6 6 6 8 8 5 4 3 4 4 3 4 3 3 2 2 1 1 2 1 1 1 1 1 1 1 1 0 1 2 2 2 2 2 3 3 3 4
5 5 6 7 9 10 10 8 6 5 4 4 3 3 1 1 1 1 2 2 0 1 1 1 1 1 1 1 1 1 1 1 0 1 1 2 2 2
4 4 5 6 6 6 8 10 9 8 6 4 4 2 2 1 1 1 1 2 1 1 2 0 1 1 2 1 2 2 2 1 1 1 1 2 2 2
4 4 4 4 5 5 6 6 6 5 4 3 3 2 1 1 2 2 2 2 1 1 2 1 1 1 2 1 3 4 3 3 3 3 3 3 3 2
4 4 4 4 6 7 6 6 5 4 5 6 4 3 4 3 3 3 3 3 1 1 1 1 1 1 1 2 2 3 4 4 4 4 3 3 3 2
3 4 5 5 6 6 5 5 4 2 3 4 4 5 4 4 5 3 3 2 1 1 1 1 0 0 1 2 1 2 2 4 4 4 4 4 3 1
2 2 2 5 6 6 5 3 2 2 2 2 3 3 3 3 3 2 2 2 2 1 2 1 1 0 1 2 2 2 2 2 2 2 3 4 4 3
2 0 1 4 6 6 4 4 4 4 3 3 2 2 2 2 2 2 1 1 1 2 2 2 1 2 1 1 3 2 2 2 1 2 2 3 4 4
1 2 3 4 4 3 4 5 4 3 3 2 1 1 1 1 1 2 3 2 2 2 1 0 1 1 2 2 2 2 2 2 2 2 2 2 2 2
2 2 3 4 3 2 2 2 2 1 2 1 0 1 1 2 1 1 1 1 2 3 4 2 0 1 1 2 2 2 2 2 2 2 2 2 2 2
3 3 2 2 2 2 2 2 2 2 1 1 1 1 1 1 1 1 1 1 1 2 3 3 2 1 1 2 1 2 2 2 2 2 1 2 3 3
4 2 1 1 1 0 0 1 1 1 0 1 1 1 0 1 1 1 1 0 1 1 2 2 2 3 3 3 2 2 2 2 2 2 1 2 3 4
3 1 1 1 1 1 1 1 1 1 0 1 1 0 0 1 1 1 1 1 1 2 2 1 0 1 1 3 5 2 2 2 1 2 2 2 3 4
2 2 2 1 1 1 1 1 0 0 0 0 0 0 0 0 0 1 1 1 1 1 2 1 1 1 3 3 3 4 3 2 2 2 2 2 3 4
2 2 2 2 2 2 1 1 1 0 0 0 0 1 1 0 1 1 1 2 1 1 2 3 4 4 1 0 2 4 4 4 3 3 2 1 2 2
2 2 2 2 2 2 2 1 1 1 0 0 1 1 1 0 1 1 1 1 1 2 3 3 3 1 1 1 2 3 4 4 4 4 4 5 3 3
2 2 2 2 2 2 2 2 1 1 1 1 1 1 1 1 1 1 1 1 2 2 2 2 2 1 1 1 2 3 4 4 3 3 4 6 7 8
Wind_Direction
1 8 37 233 203 190 174 171 167 174 235 241 164 72 101 88 88 92 100 107 110 106 105 104 100 94 87 80 72 65 60 56 53 48 41 32 24 20
3 18 9 328 327 158 167 168 159 160 168 212 196 153 112 102 97 86 94 106 115 119 113 107 103 99 92 86 80 76 70 66 62 57 51 46 41 37
6 24 14 18 49 51 87 98 114 133 143 149 95 114 104 113 95 89 86 80 95 108 111 109 105 101 97 92 85 79 73 69 66 61 56 51 45 41
25 36 28 45 52 51 74 90 109 125 141 143 113 91 112 144 129 116 105 98 91 100 108 108 105 101 97 90 83 78 72 66 62 56 52 48 45 45
42 45 31 51 58 60 74 84 94 100 117 133 130 90 89 109 102 93 88 72 98 102 98 96 97 99 100 98 91 84 78 67 58 49 42 39 39 37
46 51 47 57 71 76 80 85 95 96 101 113 111 101 99 98 103 104 87 50 74 91 89 98 90 89 94 107 106 97 86 73 58 47 37 30 29 30
50 52 58 65 69 71 81 85 97 95 94 101 103 95 81 89 116 149 126 104 42 68 67 47 58 28 1 15 121 109 90 68 47 33 27 22 18 18
62 53 59 57 62 67 72 75 89 102 105 100 99 107 97 85 72 98 108 109 125 291 108 18 60 310 291 283 262 222 234 250 18 17 10 6 359 358
68 61 66 57 58 64 66 65 64 73 92 113 112 121 134 172 127 97 107 129 171 193 126 199 294 279 277 262 237 241 246 258 283 291 310 325 337 343
70 72 74 57 56 74 77 66 57 52 63 85 113 131 136 165 164 162 160 117 64 40 108 146 271 273 286 279 259 246 247 254 262 266 274 288 302 321
62 66 76 71 64 79 81 75 60 37 49 69 80 71 64 73 101 91 78 89 60 333 353 128 241 286 300 291 279 268 263 262 263 263 270 277 279 298
56 48 59 76 80 90 91 90 78 37 33 38 36 31 33 37 56 94 121 114 109 299 298 110 202 85 319 299 293 291 284 279 272 266 266 263 254 255
78 48 36 73 83 93 102 106 121 112 68 61 44 28 23 18 17 38 94 130 134 231 246 146 159 161 199 289 300 276 253 265 280 279 267 258 243 208
115 96 59 77 78 82 84 73 76 83 76 67 56 30 11 349 338 357 29 64 167 205 227 151 167 187 177 251 282 294 287 269 245 262 271 276 259 245
134 128 101 79 70 63 54 57 69 74 80 75 61 330 292 298 335 354 0 9 1 340 338 188 174 182 171 202 249 267 285 284 245 245 261 254 248 235
73 64 68 62 57 45 33 34 52 88 114 118 176 307 344 3 3 358 358 357 4 333 332 340 271 173 208 233 215 252 247 263 271 253 251 264 261 234
105 66 54 47 36 21 18 22 30 49 65 49 49 23 7 5 342 342 24 45 36 316 319 326 329 302 223 205 239 257 259 265 256 241 236 274 272 255
108 94 100 111 130 136 78 23 27 21 21 58 50 47 5 333 332 344 24 68 280 281 287 305 342 5 2 329 235 234 260 260 266 257 218 236 275 272
112 129 148 169 179 168 166 163 213 257 217 92 74 13 340 336 340 333 345 353 305 289 287 295 9 82 7 313 301 261 225 259 272 278 253 224 249 267
148 167 188 190 182 177 177 170 198 320 346 199 233 305 303 294 305 303 305 288 280 292 311 313 268 211 210 234 263 289 266 225 227 253 267 269 271 288
184 187 192 185 181 178 176 170 166 179 247 231 266 285 294 298 292 290 292 294 278 276 285 280 272 268 234 61 320 303 296 274 232 219 227 257 295 312
188 188 193 186 176 172 165 159 146 151 175 215 268 287 298 288 269 282 288 290 282 270 269 276 299 341 52 262 275 283 297 308 307 298 250 212 198 222
188 189 189 178 169 161 157 158 158 183 214 228 260 270 286 290 287 290 297 294 296 298 302 305 318 321 290 261 269 282 291 300 311 324 305 289 265 253